{"data":{"norad_id":45399,"epoch":"2026-05-25T02:59:10.538592Z","epoch_age_seconds":54470,"freshness":"FRESH","line1":"1 45399U 20019AR  26145.12442753  .00090866  00000+0  93597-3 0  9992","line2":"2 45399  53.0346  91.1154 0006038  68.5439 291.6218 15.64092957342350","mean_motion":15.64092957,"eccentricity":0.0006038,"inclination_deg":53.0346,"raan_deg":91.1154,"arg_perigee_deg":68.5439,"mean_anomaly_deg":291.6218,"bstar":0.00093597,"rev_number":34235,"period_min":92.066139263358,"perigee_km":371.77060590704,"apogee_km":379.92671899302,"semimajor_km":6753.98566245,"source":"CELESTRAK","updated_at":"2026-05-25T13:38:16.418468Z"}}